Regional Weather Roundup
Issued by NWS

Home | Current Version | Previous Version | Graphics & Text | Print | Product List | Glossary On
Versions: 1 2 3 4 5 6 7 8 9 10 11 12 13 14 15 16 17 18 19 20 21 22 23 24 25 26 27 28 29 30 31 32 33 34 35 36 37 38 39 40 41 42 43 44 45 46 47 48 49 50
000
ASUS43 KOAX 260110
RWRNE

WEATHER ROUNDUP FOR NEBRASKA
NATIONAL WEATHER SERVICE OMAHA NE
800 PM CDT MON MAY 25 2015

NOTES: SATELLITE DATA IS BEING USED TO AUGMENT CLOUD COVER ABOVE
       12000 FEET.
       "FAIR" INDICATES FEW OR NO CLOUDS BELOW 12,000 FEET WITH NO
       SIGNIFICANT WEATHER AND/OR OBSTRUCTIONS TO VISIBILITY.

  * THESE STATIONS DO NOT REPORT WEATHER SUCH AS RAIN...SNOW OR FOG.

NEZ001>004-019>022-054>056-260200-
NEBRASKA PANHANDLE

CITY           SKY/WX    TMP DP  RH WIND       PRES   REMARKS
SCOTTSBLUFF    CLOUDY    56  53  90 W7        29.89S
ALLIANCE       PTSUNNY   58  50  75 W6        29.86F
CHADRON        CLOUDY    59  53  80 NE5       29.88R
KIMBALL          N/A    N/A N/A N/A MISG        N/A
SIDNEY         PTSUNNY   56  48  74 NW10      29.90R
$$

NEZ057>060-069>072-079>082-260200-
SOUTHWEST NEBRASKA

CITY           SKY/WX    TMP DP  RH WIND       PRES   REMARKS
NORTH PLATTE   PTSUNNY   65  52  62 NW8       29.79S
IMPERIAL       MOSUNNY   58  50  75 W12       29.84R
LEXINGTON      CLEAR     69  51  52 W10       29.76F
MCCOOK         PTCLDY    66  48  52 W14       29.78F
OGALLALA       MOSUNNY   60  51  74 N13       29.84R
$$

NEZ005>010-023>029-035>040-094-260200-
NORTH CENTRAL NEBRASKA

CITY           SKY/WX    TMP DP  RH WIND       PRES   REMARKS
VALENTINE      PTSUNNY   61  53  75 VRB3      29.82R
AINSWORTH      PTSUNNY   59  55  85 N8        29.82R
BROKEN BOW     CLOUDY    68  55  63 N14G20    29.76S
O`NEILL        CLEAR     66  58  75 N6        29.78S
ORD            MOCLDY    67  53  61 SE7       29.74R
THEDFORD       MOSUNNY   59  52  76 N5        29.83R
$$

NEZ041-046>049-061>064-073>077-083>087-260200-
SOUTH CENTRAL NEBRASKA

CITY           SKY/WX    TMP DP  RH WIND       PRES   REMARKS
GRAND ISLAND   MOCLDY    72  56  57 E3        29.74F
AURORA         MOCLDY    67  58  73 W5        29.75F
HASTINGS       MOCLDY    68  56  65 SE10      29.74F
HEBRON         CLOUDY    65  52  62 S13       29.76F
HOLDREGE       PTCLDY    72  47  41 W8        29.76S
KEARNEY *      MOCLDY    73  48  40 W7        29.75F
YORK           PTCLDY    73  57  56 S8        29.74F
$$

NEZ011>018-030>034-042>045-260200-
NORTHEAST NEBRASKA

CITY           SKY/WX    TMP DP  RH WIND       PRES   REMARKS
NORFOLK        CLEAR     74  55  51 S8        29.72F
ALBION         PTCLDY    71  55  56 S6        29.74F
BLAIR          CLOUDY    74  59  59 SE21G28   29.75S
COLUMBUS *     PTCLDY   N/A N/A N/A MISG        N/A
FREMONT        MOCLDY    78  58  50 S5        29.73F THUNDER
TEKAMAH        MOCLDY    80  60  50 S12       29.72F
WAYNE          CLEAR     73  56  56 SW7       29.74F
$$

NEZ050>053-065>068-078-088>093-260200-
SOUTHEAST NEBRASKA

CITY           SKY/WX    TMP DP  RH WIND       PRES   REMARKS
LINCOLN        CLOUDY    72  63  73 S8        29.75S
OMAHA EPPLEY   CLOUDY    72  59  63 S23G31    29.76R
BEATRICE       CLOUDY    65  55  70 S6        29.77R
FALLS CITY     RAIN      61  59  93 E15       29.82F
NEBRASKA CITY  TSTM      63  61  94 S8        29.83R
PLATTSMOUTH    CLOUDY    67  60  77 S16G24    29.80R
$$

NEZ044-045-051>053-067-260200-
OMAHA AREA

CITY           SKY/WX    TMP DP  RH WIND       PRES   REMARKS
OMAHA EPPLEY   CLOUDY    72  59  63 S23G31    29.76R
BLAIR          CLOUDY    74  59  59 SE21G28   29.75S
FREMONT        MOCLDY    78  58  50 S5        29.73F THUNDER
MILLARD        CLOUDY    71  60  68 S12       29.76R
OFFUTT AFB     PTCLDY    67  60  78 S9        29.78R
PLATTSMOUTH    CLOUDY    67  60  77 S16G24    29.80R
WAHOO          MOCLDY    76  61  59 S8        29.73F
$$


USA.gov is the U.S. government's official web portal to all federal, state and local government web resources and services.